Regional Weather Roundup
Issued by NWS

Home | Current Version | Previous Version | Text Only | Print | Product List | Glossary Off
Versions: 1 2 3 4 5 6 7 8 9 10 11 12 13 14 15 16 17 18 19 20 21 22 23 24 25 26 27 28 29 30 31 32 33 34 35 36 37 38 39 40 41 42 43 44 45 46 47 48 49 50

000
ASUS45 KBOU 280507
RWRCO

WEATHER ROUNDUP FOR COLORADO
NATIONAL WEATHER SERVICE DENVER/BOULDER CO
1000 PM MST TUE JAN 27 2015

NOTE: "FAIR" INDICATES FEW OR NO CLOUDS BELOW 12000 FEET WITH NO
SIGNIFICANT WEATHER AND/OR OBSTRUCTIONS TO VISIBILITY.

COZ001>005-013-030-031-280600-
...NORTHWEST COLORADO...

CITY           SKY/WX    TMP DP  RH WIND       PRES   REMARKS
CRAIG          CLOUDY    34  30  85 NW3       30.23S
HAYDEN         CLOUDY    39  27  60 CALM      30.22F
MEEKER         CLOUDY    41  31  67 VRB3      30.23F
MOUNT WERNER   NOT AVBL
STEAMBOAT SPGS MOCLDY    36  25  65 SE6       30.23F
WALDEN         CLOUDY    36  23  60 S8        30.23R
$$

COZ006>008-011-280600-
...WEST CENTRAL VALLEYS...

CITY           SKY/WX    TMP DP  RH WIND       PRES   REMARKS
GRAND JUNCTION MOCLDY    35  28  75 E5        30.24F WCI  31
MONTROSE       MOCLDY    35  25  66 SE9       30.28S WCI  28
EAGLE          CLEAR     30  27  86 VRB7      30.27R WCI  23
RIFLE          CLOUDY    40  27  59 NE3       30.25S
DELTA          CLEAR     36  27  70 N5        30.28S
NUCLA          MOCLDY    37  30  75 E6        30.31S
$$

COZ017>023-064>068-280600-
...SOUTHWEST COLORADO...

CITY           SKY/WX    TMP DP  RH WIND       PRES   REMARKS
DURANGO        CLOUDY    32  27  81 CALM      30.29F
CORTEZ         CLOUDY    36  30  79 CALM      30.29R
PAGOSA SPRINGS PTCLDY    32  29  88 NW3       30.33S
TELLURIDE      NOT AVBL
WOLF CREEK PAS NOT AVBL
$$

COZ009-010-012-014-032>034-037-058>063-280600-
...CENTRAL COLORADO...

CITY           SKY/WX    TMP DP  RH WIND       PRES   REMARKS
ASPEN          CLEAR     29  21  72 S8        30.27S WCI  21
BUENA VISTA    CLEAR     29  22  75 CALM      30.22S
COPPER MTN     CLEAR     32  16  51 W7        30.33F WCI  26
BERTHOUD PASS  FAIR      23  18  80 NW16G29   30.33F WCI  10
COTTONWOOD PAS CLEAR     41  18  38 CALM      30.27S
GUNNISON       MOCLDY    10   1  67 NE5       30.36R WCI   2
KREMMLING      MOCLDY    19  18  93 CALM      30.29R
LEADVILLE      PTCLDY    26  13  57 N13       30.26F WCI  15
MONARCH PASS   PTCLDY    23  18  80 MISG      30.42F
SALIDA         CLEAR     46  20  36 SW18G26   30.27F
SUNLIGHT       MOCLDY    32  28  86 CALM        N/A
WILKERSON PASS PTCLDY    32  14  47 SW7       30.31F WCI  26
$$

COZ069>075-280600-
...SAN LUIS VALLEY/SANGRE DE CRISTO MOUNTAINS...

CITY           SKY/WX    TMP DP  RH WIND       PRES   REMARKS
ALAMOSA        CLEAR     19  14  81 CALM      30.26S
LA VETA PASS   NOT AVBL
SAGUACHE       PTCLDY    28  21  74 N8        30.27F WCI  20
$$

COZ035-036-038>040-280600-
...NORTHERN COLORADO FRONT RANGE...

CITY           SKY/WX    TMP DP  RH WIND       PRES   REMARKS
DENVER INTL AP PTCLDY    46  29  51 SW9       30.01R
DMNS CITY PARK   N/A     49  20  31 S6        30.01S
AURORA         PTCLDY    47  27  45 SW6       30.03S
FRONT RANGE AP NOT AVBL
ERIE MUNI ARPT PTCLDY    36  24  63 SE3       30.00S
BOULDER MUN AP PTCLDY    52  19  28 CALM      30.00S
CENTENNIAL     PTCLDY    43  25  49 CALM      30.04R
BROOMFIELD     CLEAR     54  19  26 W6        30.03S
FORT COLLINS   PTCLDY    45  25  45 CALM      30.01R
LONGMONT       PTCLDY    43  22  44 NE3       30.02S
$$

COZ041-046-047-076>085-087-088-280600-
...PIKES PEAK/PALMER DIVIDE AND SOUTHERN FOOTHILLS...

CITY           SKY/WX    TMP DP  RH WIND       PRES   REMARKS
COLO. SPRINGS  PTCLDY    52  20  28 NW12      30.04F
A. F. ACADEMY  CLEAR     54  16  22 W15G24    30.05F
ELLICOTT       CLEAR    N/A N/A N/A N5        30.02F
FALCON         CLEAR     49  17  28 NW17      30.08S
FORT CARSON    CLEAR     41  24  51 N6        30.02S
LIMON          CLEAR     28  23  81 N8        29.99F WCI  20
MONUMENT HILL  PTCLDY    37  21  52 W8        30.08S
TRINIDAD       CLEAR     45  26  47 W13       30.06F
$$

COZ042>045-048>051-090-091-280600-
...NORTHEAST COLORADO...

CITY           SKY/WX    TMP DP  RH WIND       PRES   REMARKS
GREELEY ARPT   PTCLDY    36  23  60 NW6       29.97F
AKRON          PTCLDY    47  28  47 W12       29.93F
BURLINGTON     MOCLDY    38  29  70 SW9       29.94F
WRAY           PTCLDY    43  32  63 W7        29.92F
STERLING       PTCLDY    41  32  70 N5        29.93S
HOLYOKE        PTCLDY    36  28  75 CALM      29.92F
FORT MORGAN    PTCLDY    44  27  52 N13       29.96S
$$

COZ086-089-092>099-280600-
...SOUTHEAST COLORADO...

CITY           SKY/WX    TMP DP  RH WIND       PRES   REMARKS
PUEBLO         CLEAR     48  24  39 W18G26    29.99S
LA JUNTA       CLEAR     42  31  64 W12       29.96F
LAMAR          CLEAR     38  31  76 W6        29.94F
SPRINGFIELD      N/A     45  32  60 SW13      29.99F
$$


USA.gov is the U.S. government's official web portal to all federal, state and local government web resources and services.